Home   Weather   Camarones   Past weeks
Flag for Argentina

Past Weather in Camarones, Chubut, Argentina — Yesterday and Last 2 Weeks

Now
55 °F

Clear.


Feels Like: 51 °F
Forecast: 64 / 49 °F
Wind: 16 mph from North

Location: Comodoro Rivadavia Aerodrome

Current Time: Aug 26, 2019 at 5:14:23 am

Latest Report: Aug 26, 2019 at 4:00 am


Visibility: 10 mi

Pressure: 29.56 "Hg

Humidity: 47%

Dew Point: 36 °F

Location of CamaronesLocation

Past Weather in Camarones — Graph

°F

Camarones Temperature Yesterday

Maximum temperature yesterday: 59 °F (at 4:00 pm)
Minimum temperature yesterday: 45 °F (at 7:00 am)
Average temperature yesterday: 50 °F

High & Low Weather Summary for the Past Weeks

 TemperatureHumidityPressure
High66 °F (Aug 24, 3:00 pm)100% (Aug 17, 4:00 am)30.60 "Hg (Aug 17, 4:00 am)
Low28 °F (Aug 12, 8:00 am)34% (Aug 24, 2:00 pm)29.56 "Hg (Aug 26, 4:00 am)
Average43 °F67%30.18 "Hg
* Reported Aug 11 4:00 am — Aug 26 4:00 am, Camarones. Weather by CustomWeather, © 2019

Note: Actual official high and low records may vary slightly from our data, if they occured in-between our weather recording intervals... More about our weather records

Advertising

Camarones Weather History for the Previous 24 Hours

Scroll right to see more
 ConditionsComfort  
Time TempWeatherWind HumidityBarometerVisibility
4:00 am
Mon, Aug 26
55 °FClear.16 mph47%29.56 "Hg10 mi
3:00 am54 °FClear.14 mph51%29.62 "Hg10 mi
2:00 am46 °FClear.14 mph76%29.65 "Hg10 mi
1:00 am48 °FClear.No wind71%29.71 "Hg10 mi
12:00 am46 °FClear.7 mph71%29.77 "Hg10 mi
11:00 pm
Sun, Aug 25
48 °FClear.12 mph54%29.83 "Hg10 mi
10:00 pm48 °FClear.17 mph58%29.86 "Hg10 mi
9:00 pm48 °FClear.16 mph62%29.92 "Hg10 mi
8:00 pm46 °FClear.10 mph76%29.92 "Hg10 mi
7:00 pm46 °FClear.5 mph71%29.95 "Hg10 mi
6:00 pm54 °FPassing clouds.9 mph47%29.95 "HgN/A
5:00 pm57 °FPassing clouds.6 mph44%29.95 "HgN/A
4:00 pm59 °FPassing clouds.9 mph36%29.98 "HgN/A
3:00 pm57 °FPassing clouds.8 mph44%29.98 "HgN/A
2:00 pm57 °FSunny.9 mph44%30.01 "Hg10 mi
1:00 pm55 °FPassing clouds.12 mph44%30.01 "HgN/A
12:00 pm54 °FSunny.8 mph47%30.01 "Hg10 mi
11:00 am52 °FSunny.21 mph50%30.01 "Hg10 mi
10:00 am48 °FSunny.16 mph58%30.01 "Hg10 mi
9:00 am45 °FSunny.15 mph66%30.01 "Hg10 mi
8:00 am46 °FClear.23 mph62%29.98 "Hg10 mi
7:00 am45 °FClear.18 mph66%29.95 "Hg10 mi
6:00 am46 °FClear.16 mph66%29.92 "Hg10 mi
5:00 am46 °FClear.21 mph62%29.89 "Hg10 mi
Weather by CustomWeather, © 2019

See weather overview